Location: Lombard
(41.8800°N, 88.0080°W)
Time: 09:24:11
(UTC-06:00)

deb Explorer IX - Visible Passes

Search period start: 29 January 2023 00:00
Search period end: 08 February 2023 00:00
Orbit: 534 x 1049 km, 38.8° (Epoch: 29 January)

Date Brightness Start Highest point End Pass type
(mag) Time Alt. Az. Time Alt. Az. Time Alt. Az.
29 Jan ? 05:07:50 16° S 05:09:38 21° SSE 05:12:41 10° ESE visible
30 Jan ? 04:37:22 19° SSE 04:37:22 19° SSE 04:40:07 10° ESE visible
30 Jan ? 06:18:53 10° WSW 06:22:45 47° S 06:26:43 10° E visible
31 Jan ? 04:06:46 13° ESE 04:06:46 13° ESE 04:07:33 10° ESE visible
31 Jan ? 05:47:26 16° SW 05:50:20 44° SSE 05:54:13 10° E visible
01 Feb ? 05:16:44 33° SSW 05:17:53 42° SSE 05:21:42 10° E visible
02 Feb ? 04:45:57 38° SE 04:45:57 38° SE 04:49:13 10° E visible
02 Feb ? 06:27:12 10° W 06:31:10 55° S 06:35:10 10° ESE visible
03 Feb ? 04:15:05 22° ESE 04:15:05 22° ESE 04:16:43 10° E visible
03 Feb ? 05:55:45 17° WSW 05:58:40 56° S 06:02:38 10° ESE visible
04 Feb ? 03:44:11 10° E 03:44:11 10° E 03:44:14 10° E visible
04 Feb ? 05:24:50 37° WSW 05:26:10 56° S 05:30:07 10° ESE visible
05 Feb ? 04:53:54 55° SSE 04:53:54 55° SSE 04:57:36 10° E visible
06 Feb ? 04:22:56 29° ESE 04:22:56 29° ESE 04:25:05 10° E visible
06 Feb ? 06:03:34 14° W 06:06:49 40° SSW 06:10:36 10° SE visible
07 Feb ? 03:51:55 14° E 03:51:55 14° E 03:52:34 10° E visible
07 Feb ? 05:32:34 28° WSW 05:34:16 43° SSW 05:38:05 10° ESE visible
